Hourly Weather Rudove

Today, 10 April, Saturday

Time Temperature Precipitation Wind Pressure Humidity
00:00 +3°C° 0 mm 3 mps 753 mmHg 59%
01:00 +3°C° 0 mm 3 mps 753 mmHg 60%
02:00 +2°C° 0 mm 3 mps 753 mmHg 62%
03:00 +2°C° 0 mm 3 mps 753 mmHg 63%
04:00 +2°C° 0 mm 3 mps 753 mmHg 65%
05:00 +1°C° 0 mm 3 mps 753 mmHg 67%
06:00 +1°C° 0 mm 3 mps 753 mmHg 69%
07:00 +3°C° 0 mm 4 mps 753 mmHg 63%
08:00 +5°C° 0 mm 5 mps 753 mmHg 56%
09:00 +7°C° 0 mm 5 mps 753 mmHg 50%
10:00 +8°C° 0 mm 6 mps 753 mmHg 46%
11:00 +9°C° 0 mm 6 mps 753 mmHg 42%
12:00 +10°C° 0 mm 6 mps 753 mmHg 38%
13:00 +10°C° 0 mm 6 mps 752 mmHg 37%
14:00 +11°C° 0 mm 6 mps 752 mmHg 36%
15:00 +11°C° 0 mm 6 mps 752 mmHg 36%
16:00 +12°C° 0 mm 5 mps 752 mmHg 39%
17:00 +10°C° 0 mm 5 mps 752 mmHg 42%
18:00 +11°C° 0 mm 4 mps 752 mmHg 45%
19:00 +10°C° 0 mm 4 mps 752 mmHg 50%
20:00 +8°C° 0 mm 3 mps 752 mmHg 55%
21:00 +7°C° 0 mm 3 mps 753 mmHg 60%
22:00 +7°C° 0 mm 3 mps 753 mmHg 61%
23:00 +5°C° 0 mm 3 mps 753 mmHg 62%

Tomorrow, 11 April, Sunday

Time Temperature Precipitation Wind Pressure Humidity
00:00 +5°C° 0 mm 4 mps 752 mmHg 63%
01:00 +5°C° 0 mm 4 mps 753 mmHg 64%
02:00 +4°C° 0 mm 4 mps 753 mmHg 64%
03:00 +4°C° 0 mm 4 mps 753 mmHg 65%
04:00 +4°C° 0 mm 4 mps 753 mmHg 64%
05:00 +4°C° 0 mm 4 mps 753 mmHg 64%
06:00 +3°C° 0 mm 5 mps 753 mmHg 63%
07:00 +5°C° 0 mm 5 mps 754 mmHg 60%
08:00 +5°C° 0 mm 6 mps 754 mmHg 56%
09:00 +6°C° 0 mm 7 mps 754 mmHg 52%
10:00 +8°C° 0 mm 7 mps 754 mmHg 49%
11:00 +9°C° 0 mm 7 mps 753 mmHg 46%
12:00 +10°C° 0 mm 7 mps 753 mmHg 42%
13:00 +11°C° 0 mm 7 mps 753 mmHg 43%
14:00 +11°C° 0 mm 8 mps 753 mmHg 43%
15:00 +12°C° 0 mm 8 mps 753 mmHg 43%
16:00 +11°C° 0 mm 7 mps 753 mmHg 47%
17:00 +11°C° 0 mm 7 mps 753 mmHg 50%
18:00 +10°C° 0 mm 6 mps 753 mmHg 54%
19:00 +9°C° 0 mm 6 mps 753 mmHg 60%
20:00 +9°C° 0 mm 6 mps 752 mmHg 67%
21:00 +8°C° 0 mm 6 mps 752 mmHg 74%
22:00 +8°C° 0 mm 5 mps 752 mmHg 77%
23:00 +8°C° 0 mm 5 mps 752 mmHg 81%

Day after tomorrow, 12 April, Monday

Time Temperature Precipitation Wind Pressure Humidity
00:00 +8°C° 0 mm 5 mps 752 mmHg 85%
01:00 +7°C° 0 mm 5 mps 752 mmHg 88%
02:00 +7°C° 0 mm 5 mps 751 mmHg 90%
03:00 +7°C° 0 mm 5 mps 751 mmHg 92%
04:00 +7°C° 0 mm 5 mps 751 mmHg 93%
05:00 +6°C° 0 mm 5 mps 751 mmHg 94%
06:00 +6°C° 0 mm 5 mps 751 mmHg 95%
07:00 +8°C° 0 mm 5 mps 751 mmHg 87%
08:00 +10°C° 0 mm 6 mps 751 mmHg 80%
09:00 +11°C° 0 mm 6 mps 750 mmHg 72%
10:00 +15°C° 0 mm 6 mps 750 mmHg 62%
11:00 +17°C° 0 mm 6 mps 750 mmHg 52%
12:00 +20°C° 0 mm 6 mps 750 mmHg 42%
13:00 +21°C° 0 mm 6 mps 750 mmHg 40%
14:00 +21°C° 0 mm 6 mps 750 mmHg 37%
15:00 +22°C° 0 mm 6 mps 750 mmHg 35%
16:00 +21°C° 0 mm 5 mps 750 mmHg 39%
17:00 +20°C° 0 mm 5 mps 750 mmHg 44%
18:00 +19°C° 0 mm 4 mps 750 mmHg 48%
19:00 +18°C° 0 mm 4 mps 750 mmHg 54%
20:00 +17°C° 0 mm 4 mps 751 mmHg 60%
21:00 +16°C° 0 mm 3 mps 751 mmHg 67%
22:00 +15°C° 0 mm 4 mps 751 mmHg 64%
23:00 +15°C° 0 mm 5 mps 751 mmHg 62%

13 April, Tuesday

Time Temperature Precipitation Wind Pressure Humidity
00:00 +15°C° 0 mm 5 mps 751 mmHg 59%
01:00 +14°C° 0 mm 5 mps 751 mmHg 64%
02:00 +13°C° 0 mm 4 mps 751 mmHg 70%
03:00 +12°C° 0 mm 4 mps 751 mmHg 75%
04:00 +12°C° 0 mm 4 mps 751 mmHg 77%
05:00 +11°C° 0 mm 3 mps 751 mmHg 80%
06:00 +11°C° 0 mm 3 mps 751 mmHg 82%
07:00 +12°C° 0 mm 4 mps 751 mmHg 76%
08:00 +13°C° 0 mm 4 mps 751 mmHg 70%
09:00 +15°C° 0 mm 4 mps 751 mmHg 63%
10:00 +16°C° 0 mm 5 mps 751 mmHg 57%
11:00 +17°C° 0 mm 5 mps 750 mmHg 50%
12:00 +20°C° 0 mm 5 mps 750 mmHg 44%
13:00 +20°C° 0 mm 5 mps 750 mmHg 44%
14:00 +20°C° 0 mm 5 mps 750 mmHg 44%
15:00 +20°C° 0 mm 5 mps 750 mmHg 44%
16:00 +19°C° 0 mm 4 mps 750 mmHg 48%
17:00 +18°C° 0 mm 4 mps 750 mmHg 52%
18:00 +17°C° 0 mm 3 mps 750 mmHg 56%
19:00 +16°C° 0 mm 3 mps 750 mmHg 60%
20:00 +16°C° 0 mm 3 mps 750 mmHg 63%
21:00 +15°C° 0 mm 2 mps 750 mmHg 66%
22:00 +15°C° 0 mm 2 mps 750 mmHg 69%
23:00 +14°C° 0 mm 2 mps 750 mmHg 71%

14 April, Wednesday

Time Temperature Precipitation Wind Pressure Humidity
00:00 +14°C° 0 mm 2 mps 749 mmHg 73%
01:00 +14°C° 0 mm 2 mps 749 mmHg 74%
02:00 +13°C° 0 mm 2 mps 749 mmHg 76%
03:00 +13°C° 0 mm 2 mps 749 mmHg 77%
04:00 +13°C° 0 mm 2 mps 749 mmHg 78%
05:00 +12°C° 0 mm 2 mps 749 mmHg 80%
06:00 +12°C° 0 mm 1 mps 749 mmHg 81%
07:00 +13°C° 0 mm 2 mps 749 mmHg 80%
08:00 +13°C° 0 mm 2 mps 749 mmHg 78%
09:00 +14°C° 0 mm 2 mps 749 mmHg 77%
10:00 +14°C° 0 mm 2 mps 749 mmHg 73%
11:00 +15°C° 0 mm 2 mps 749 mmHg 69%
12:00 +16°C° 0 mm 2 mps 749 mmHg 66%
13:00 +17°C° 0 mm 2 mps 749 mmHg 62%
14:00 +18°C° 0 mm 3 mps 749 mmHg 58%
15:00 +18°C° 0 mm 3 mps 749 mmHg 54%
16:00 +18°C° 0 mm 2 mps 748 mmHg 54%
17:00 +18°C° 0 mm 2 mps 748 mmHg 54%
18:00 +19°C° 0 mm 1 mps 748 mmHg 54%
19:00 +18°C° 0 mm 1 mps 748 mmHg 57%
20:00 +16°C° 0 mm 1 mps 748 mmHg 60%
21:00 +15°C° 0 mm 1 mps 748 mmHg 63%
22:00 +14°C° 0 mm 1 mps 748 mmHg 62%
23:00 +14°C° 0 mm 1 mps 747 mmHg 62%

15 April, Thursday

Time Temperature Precipitation Wind Pressure Humidity
00:00 +13°C° 0 mm 1 mps 747 mmHg 62%
01:00 +13°C° 0 mm 1 mps 747 mmHg 61%
02:00 +13°C° 0 mm 1 mps 747 mmHg 60%
03:00 +12°C° 0 mm 1 mps 747 mmHg 59%
04:00 +12°C° 0 mm 1 mps 747 mmHg 60%
05:00 +12°C° 0 mm 1 mps 746 mmHg 61%
06:00 +12°C° 0 mm 1 mps 746 mmHg 62%
07:00 +13°C° 0 mm 1 mps 746 mmHg 59%
08:00 +14°C° 0 mm 2 mps 746 mmHg 57%
09:00 +15°C° 0 mm 2 mps 746 mmHg 55%
10:00 +16°C° 0 mm 2 mps 746 mmHg 51%
11:00 +17°C° 0 mm 2 mps 746 mmHg 47%
12:00 +18°C° 0 mm 2 mps 746 mmHg 44%
13:00 +19°C° 0 mm 2 mps 745 mmHg 43%
14:00 +19°C° 0 mm 3 mps 745 mmHg 43%
15:00 +20°C° 0 mm 3 mps 745 mmHg 42%
16:00 +18°C° 0 mm 3 mps 745 mmHg 47%
17:00 +17°C° 0 mm 3 mps 745 mmHg 52%
18:00 +16°C° 0 mm 2 mps 744 mmHg 57%
19:00 +15°C° 0 mm 2 mps 744 mmHg 59%
20:00 +14°C° 0 mm 2 mps 744 mmHg 61%
21:00 +13°C° 0 mm 2 mps 744 mmHg 63%
22:00 +13°C° 0 mm 2 mps 744 mmHg 66%
23:00 +12°C° 0 mm 2 mps 744 mmHg 69%
Show more